This demonstration page uses our WeatherBlox Daily Observations layout. Learn more.

Hourly Observations for March 3, 2017

Temp ( °F °C ) Dew Point ( °F °C ) Humidity (%) Winds ( mph kmh ) Pressure ( in mb ) Visibility ( mi km ) Precip ( " mm )
12:15 am 00:15 Clear 25 -4 16 -8.9 69 69 SSE 9 15 30.59 1036 10 16.0934 0 0
12:35 am 00:35 Partly Cloudy 25 -4 16 -9.1 68 68 SSE 8 13 30.59 1036 10 16.0934 0 0
12:55 am 00:55 Clear 24 -4.5 16 -9 71 71 SSE 6 9 30.59 1036 10 16.0934 0 0
1:15 am 01:15 Clear 24 -4.7 15 -9.4 70 70 SSE 6 9 30.59 1036 10 16.0934 0 0
1:35 am 01:35 Partly Cloudy 24 -4.5 15 -9.2 70 70 SSE 8 13 30.56 1035 10 16.0934 0 0
1:55 am 01:55 Mostly Cloudy 25 -3.8 16 -9 68 68 S 10 17 30.59 1036 10 16.0934 0 0
2:15 am 02:15 Partly Cloudy 24 -4.3 16 -9.1 70 70 S 8 13 30.56 1035 10 16.0934 0 0
2:35 am 02:35 Clear 24 -4.6 16 -9.1 71 71 S 8 13 30.56 1035 10 16.0934 0 0
2:55 am 02:55 Clear 23 -5 15 -9.3 72 72 S 7 11 30.56 1035 10 16.0934 0 0
3:15 am 03:15 Clear 23 -5.1 15 -9.5 72 72 S 9 15 30.53 1034 10 16.0934 0 0
3:35 am 03:35 Clear 24 -4.5 15 -9.2 70 70 S 12 19 30.53 1034 10 16.0934 0 0
3:55 am 03:55 Clear 24 -4.4 15 -9.4 68 68 S 9 15 30.53 1034 10 16.0934 0 0
4:15 am 04:15 Clear 23 -5 15 -9.5 71 71 S 9 15 30.53 1034 10 16.0934 0 0
4:35 am 04:35 Clear 22 -5.3 15 -9.5 73 73 S 8 13 30.5 1033 10 16.0934 0 0
4:55 am 04:55 Clear 22 -5.5 15 -9.6 73 73 S 10 17 30.5 1033 10 16.0934 0 0
5:15 am 05:15 Clear 23 -5.1 15 -9.6 71 71 S 9 15 30.5 1033 10 16.0934 0 0
5:35 am 05:35 Clear 23 -4.8 15 -9.6 69 69 S 10 17 30.5 1033 10 16.0934 0 0
5:55 am 05:55 Clear 23 -4.8 14 -9.8 68 68 S 8 13 30.5 1033 10 16.0934 0 0
6:15 am 06:15 Clear 22 -5.3 14 -9.8 71 71 S 8 13 30.5 1033 10 16.0934 0 0
6:35 am 06:35 Clear 24 -4.6 15 -9.6 68 68 S 13 20 30.48 1032 10 16.0934 0 0
6:55 am 06:55 Clear 23 -5 15 -9.6 70 70 S 9 15 30.48 1032 10 16.0934 0 0
7:15 am 07:15 Sunny 22 -5.5 15 -9.5 74 74 S 9 15 30.48 1032 10 16.0934 0 0
7:35 am 07:35 Sunny 23 -4.9 15 -9.2 72 72 S 12 19 30.48 1032 10 16.0934 0 0
7:55 am 07:55 Sunny 25 -3.8 16 -8.9 68 68 S 13 20 30.48 1032 10 16.0934 0 0
8:15 am 08:15 Sunny 28 -2.4 17 -8.5 63 63 S 16 26 30.45 1031 10 16.0934 0 0
8:35 am 08:35 Sunny 30 -1.2 16 -8.8 57 57 S 23 37 30.42 1030 10 16.0934 0 0
8:55 am 08:55 Sunny 32 -0.2 16 -8.7 53 53 S 20 31 30.42 1030 10 16.0934 0 0
9:15 am 09:15 Sunny 33 0.5 17 -8.4 52 52 S 23 37 30.39 1029 10 16.0934 0 0
9:35 am 09:35 Sunny 35 1.6 18 -7.8 50 50 S 20 31 30.39 1029 10 16.0934 0 0
9:55 am 09:55 Sunny 37 2.7 19 -7.3 48 48 S 23 37 30.36 1028 10 16.0934 0 0
10:15 am 10:15 Sunny 38 3.5 19 -7 47 47 S 21 33 30.33 1027 10 16.0934 0 0
10:35 am 10:35 Sunny 39 4 20 -6.9 45 45 S 22 35 30.33 1027 10 16.0934 0 0
10:55 am 10:55 Sunny 40 4.5 20 -6.8 44 44 S 21 33 30.3 1026 10 16.0934 0 0
11:15 am 11:15 Sunny 42 5.3 20 -6.8 42 42 S 21 33 30.27 1025 10 16.0934 0 0
11:35 am 11:35 Sunny 43 6.3 20 -6.4 40 40 S 20 31 30.27 1025 10 16.0934 0 0
11:55 am 11:55 Sunny 46 7.5 21 -6.2 38 38 S 17 28 30.24 1024 10 16.0934 0 0
12:15 pm 12:15 Sunny 47 8.6 21 -6.2 35 35 S 17 28 30.21 1023 10 16.0934 0 0
12:35 pm 12:35 Sunny 50 10.1 20 -6.5 31 31 S 18 30 30.21 1023 10 16.0934 0 0
12:55 pm 12:55 Sunny 52 11 20 -6.7 29 29 SSW 18 30 30.15 1021 10 16.0934 0 0
1:15 pm 13:15 Sunny 54 12 20 -6.8 26 26 SSW 18 30 30.15 1021 10 16.0934 0 0
1:35 pm 13:35 Sunny 55 12.7 19 -7 25 25 SSW 15 24 30.12 1020 10 16.0934 0 0
1:55 pm 13:55 Sunny 56 13.6 19 -7.4 23 23 SSW 15 24 30.12 1020 10 16.0934 0 0
2:15 pm 14:15 Sunny 56 13.4 18 -7.9 22 22 SW 15 24 30.12 1020 10 16.0934 0 0
2:35 pm 14:35 Sunny 57 13.9 17 -8.2 21 21 SSW 12 19 30.09 1019 10 16.0934 0 0
2:55 pm 14:55 Sunny 58 14.2 17 -8.2 21 21 SW 9 15 30.09 1019 10 16.0934 0 0
3:15 pm 15:15 Sunny 59 15 16 -8.7 19 19 SSW 12 19 30.09 1019 10 16.0934 0 0
3:35 pm 15:35 Sunny 59 15.1 16 -9 18 18 S 7 11 30.06 1018 10 16.0934 0 0
3:55 pm 15:55 Sunny 61 16.1 15 -9.6 16 16 SSE 7 11 30.06 1018 10 16.0934 0 0
4:15 pm 16:15 Sunny 62 16.8 14 -10 15 15 S 8 13 30.06 1018 10 16.0934 0 0
4:35 pm 16:35 Sunny 63 17.1 13 -10.4 14 14 S 7 11 30.03 1017 10 16.0934 0 0
4:55 pm 16:55 Sunny 62 16.7 13 -10.8 14 14 S 6 9 30.06 1018 10 16.0934 0 0
5:15 pm 17:15 Sunny 58 14.6 15 -9.2 18 18 NE 6 9 30.06 1018 10 16.0934 0 0
5:35 pm 17:35 Sunny 54 12.4 18 -7.9 24 24 ENE 7 11 30.09 1019 10 16.0934 0 0
5:55 pm 17:55 Sunny 52 11.1 18 -7.6 26 26 ESE 7 11 30.09 1019 7 11.26538 0 0
6:15 pm 18:15 Sunny 49 9.4 18 -7.9 29 29 ESE 8 13 30.12 1020 10 16.0934 0 0
6:35 pm 18:35 Clear 46 7.7 17 -8.1 32 32 ESE 3 6 30.12 1020 10 16.0934 0 0
6:55 pm 18:55 Clear 46 8 17 -8.6 30 30 Calm 30.12 1020 10 16.0934 0 0
7:15 pm 19:15 Clear 43 6 16 -9.1 33 33 Calm 30.15 1021 10 16.0934 0 0
7:35 pm 19:35 Clear 39 3.9 15 -9.5 37 37 Calm 30.15 1021 10 16.0934 0 0
7:55 pm 19:55 Clear 39 4.1 15 -9.5 37 37 Calm 30.15 1021 10 16.0934 0 0
8:15 pm 20:15 Clear 38 3.3 16 -9.1 40 40 Calm 30.18 1022 10 16.0934 0 0
8:35 pm 20:35 Clear 38 3.3 16 -8.8 41 41 Calm 30.18 1022 10 16.0934 0 0
8:55 pm 20:55 Clear 37 2.6 16 -9.1 42 42 W 3 6 30.18 1022 10 16.0934 0 0
9:15 pm 21:15 Clear 40 4.7 16 -8.7 38 38 NNW 8 13 30.15 1021 10 16.0934 0 0
9:35 pm 21:35 Clear 37 2.9 16 -9 42 42 N 6 9 30.18 1022 10 16.0934 0 0
9:55 pm 21:55 Clear 38 3.2 16 -9.1 40 40 N 3 6 30.18 1022 10 16.0934 0 0
10:15 pm 22:15 Clear 35 1.4 16 -9.1 46 46 NNW 5 7 30.18 1022 10 16.0934 0 0
10:35 pm 22:35 Clear 35 1.6 16 -9 46 46 Calm 30.18 1022 10 16.0934 0 0
10:55 pm 22:55 Clear 34 1.3 16 -8.8 47 47 NNW 5 7 30.18 1022 10 16.0934 0 0
11:15 pm 23:15 Clear 34 1.3 16 -9.1 46 46 NW 6 9 30.18 1022 10 16.0934 0 0
11:35 pm 23:35 Clear 32 0.1 16 -9.1 50 50 Calm 30.21 1023 10 16.0934 0 0
11:55 pm 23:55 Clear 31 -0.5 15 -9.3 52 52 N 3 6 30.21 1023 10 16.0934 0 0

Powered by AerisWeather